Location: Unspecified
(43.0000°N, 0.0000°E)
Time: 13:38:23
(UTC+00:00)

PicSat - Pass Details

Date: 23 August 2020
Orbit: 482 x 496 km, 97.4° (Epoch: 21 September)

Event Time Altitude Azimuth Distance (km) Brightness Sun altitude
Exits shadow 21:31:18 24° 18° (NNE) 1,068 ? -25.9°
Drops below altitude 10° 21:33:01 10° 3° (N) 1,697 ? -26.1°
Sets 21:35:10 0° 356° (N) 2,582 ? -26.4°
